TimeEDT,TemperatureF,Dew PointF,Humidity,Sea Level PressureIn,VisibilityMPH,Wind Direction,Wind SpeedMPH,Gust SpeedMPH,PrecipitationIn,Events,Conditions,WindDirDegrees,DateUTC
12:52 AM,75.9,73.0,91,30.02,9.0,Variable,3.5,-,N/A,,Clear,0,2013-07-07 04:52:00
1:52 AM,75.9,73.0,91,30.03,10.0,WNW,3.5,-,N/A,,Clear,290,2013-07-07 05:52:00
2:52 AM,75.0,71.1,87,30.02,10.0,Calm,Calm,-,N/A,,Clear,0,2013-07-07 06:52:00
3:52 AM,75.0,69.1,82,30.01,10.0,WNW,3.5,-,N/A,,Clear,290,2013-07-07 07:52:00
4:52 AM,72.0,69.1,91,30.01,10.0,Calm,Calm,-,N/A,,Clear,0,2013-07-07 08:52:00
5:52 AM,72.0,70.0,93,30.02,10.0,Calm,Calm,-,N/A,,Clear,0,2013-07-07 09:52:00
6:52 AM,75.0,72.0,90,30.02,10.0,Calm,Calm,-,N/A,,Clear,0,2013-07-07 10:52:00
7:52 AM,82.0,73.0,74,30.03,10.0,Variable,3.5,-,N/A,,Clear,0,2013-07-07 11:52:00
8:52 AM,84.9,70.0,61,30.02,10.0,West,5.8,-,N/A,,Clear,280,2013-07-07 12:52:00
9:52 AM,87.1,70.0,57,30.02,10.0,Variable,5.8,-,N/A,,Clear,0,2013-07-07 13:52:00
10:52 AM,87.1,75.0,67,30.02,10.0,SW,6.9,-,N/A,,Clear,220,2013-07-07 14:52:00
11:52 AM,86.0,75.9,72,30.01,10.0,SW,6.9,-,N/A,,Clear,230,2013-07-07 15:52:00
12:52 PM,86.0,73.9,67,30.01,10.0,SW,8.1,-,N/A,,Clear,220,2013-07-07 16:52:00
1:52 PM,88.0,75.9,67,30.00,10.0,Variable,5.8,-,N/A,,Clear,0,2013-07-07 17:52:00
2:52 PM,82.9,75.9,79,29.99,10.0,SSW,5.8,-,N/A,,Clear,200,2013-07-07 18:52:00
3:52 PM,79.0,75.0,88,29.98,9.0,SW,5.8,-,N/A,,Clear,220,2013-07-07 19:52:00
4:52 PM,82.0,75.0,79,29.97,10.0,SW,8.1,-,N/A,,Partly Cloudy,230,2013-07-07 20:52:00
5:52 PM,80.1,73.9,81,29.97,10.0,Variable,4.6,-,N/A,,Clear,0,2013-07-07 21:52:00
6:52 PM,78.1,73.0,84,29.96,10.0,SW,8.1,-,N/A,,Clear,230,2013-07-07 22:52:00
7:52 PM,75.9,73.9,94,29.95,9.0,SSW,6.9,-,N/A,,Clear,210,2013-07-07 23:52:00
8:43 PM,73.4,73.4,100,29.96,7.0,SW,6.9,-,N/A,,Partly Cloudy,220,2013-07-08 00:43:00
8:52 PM,73.9,73.0,97,29.97,7.0,SW,5.8,-,N/A,,Scattered Clouds,220,2013-07-08 00:52:00
9:02 PM,73.4,73.4,100,29.97,7.0,SW,8.1,-,N/A,,Mostly Cloudy,220,2013-07-08 01:02:00
9:52 PM,73.9,73.0,97,29.98,6.0,Variable,5.8,-,N/A,,Overcast,0,2013-07-08 01:52:00
10:28 PM,73.4,73.4,100,29.97,6.0,SW,5.8,-,N/A,,Scattered Clouds,230,2013-07-08 02:28:00
10:40 PM,73.4,73.4,100,29.98,6.0,SW,8.1,-,N/A,,Mostly Cloudy,230,2013-07-08 02:40:00
10:52 PM,73.9,73.0,97,29.98,6.0,SW,9.2,-,N/A,,Mostly Cloudy,230,2013-07-08 02:52:00
11:52 PM,73.9,73.9,100,29.98,6.0,SW,8.1,-,N/A,,Overcast,230,2013-07-08 03:52:00